Flag for Russia Weather past 2 weeks in Samara, Russia

Now
23 °F

Clear.


Feels Like: 12 °F
Forecast: 14 / 26 °F
Wind: 10 mph from Northeast

Location: Samara

Current Time: Mar 27, 2015 at 2:39:39 AM

Latest Report: Mar 27, 2015 at 2:00 AM


Visibility: N/A

Pressure: 30.42 "Hg

Humidity: 68%

Dew point: 14 °F

Location of SamaraLocation

Historic Weather in Samara — Graph

°F

Samara temperature yesterday

Maximum temperature yesterday: 37 °F (at 12:30 AM)
Minimum temperature yesterday: 28 °F (at 7:00 PM)
Average temperature yesterday: 31 °F

Past Weeks' High & Low Weather Summary

 TemperatureHumidityPressure
High46 °F (Mar 19, 1:30 PM)100% (Mar 13, 12:00 AM)30.86 "Hg (Mar 13, 12:00 AM)
Low14 °F (Mar 24, 7:00 AM)33% (Mar 17, 5:00 PM)29.56 "Hg (Mar 22, 10:00 PM)
Average32 °F70%30.30 "Hg
* Reported Mar 12 1:00 AM — Mar 27 1:30 AM, Samara, Weather by CustomWeather, © 2015

Note: Actual official high and low records may vary slightly from our data, if they occured in-between our weather recording intervals... More about our weather records

Advertising

Samara weather history for previous 24 hours

 ConditionsComfort  
Time TempWeatherWind HumidityBarometerVisibility
1:30 AM
Fri, Mar 27
23 °FClear.8 mph68%30.42 "HgN/A
1:00 AM25 °FMostly cloudy.8 mph69%30.42 "HgN/A
12:30 AM25 °FMostly cloudy.8 mph69%30.42 "HgN/A
12:00 AM27 °FMostly cloudy.10 mph64%30.39 "HgN/A
11:30 PM
Thu, Mar 26
28 °FMostly cloudy.8 mph59%30.39 "HgN/A
11:00 PM28 °FMostly cloudy.8 mph64%30.39 "HgN/A
10:30 PM28 °FMostly cloudy.8 mph69%30.39 "HgN/A
10:00 PM28 °FMostly cloudy.6 mph74%30.39 "HgN/A
9:30 PM28 °FMostly cloudy.8 mph74%30.39 "HgN/A
9:00 PM28 °FMostly cloudy.8 mph74%30.39 "HgN/A
8:30 PM28 °FMostly cloudy.10 mph69%30.36 "HgN/A
8:00 PM28 °FMore clouds than sun.10 mph74%30.36 "HgN/A
7:30 PM28 °FMore clouds than sun.10 mph74%30.36 "HgN/A
7:00 PM28 °FMostly cloudy.15 mph74%30.36 "HgN/A
6:30 PM30 °FSnow flurries. Mostly cloudy.10 mph69%30.36 "HgN/A
6:00 PM30 °FSnow flurries. Mostly cloudy.10 mph75%30.36 "Hg2 mi
5:30 PM30 °FSnow flurries. Mostly cloudy.8 mph80%30.36 "Hg3 mi
5:00 PM30 °FMostly cloudy.10 mph80%30.36 "HgN/A
4:30 PM30 °FLight rain. Mostly cloudy.13 mph80%30.33 "HgN/A
4:00 PM30 °FLight rain. Mostly cloudy.13 mph80%30.33 "HgN/A
3:30 PM32 °FMostly cloudy.13 mph75%30.33 "HgN/A
3:00 PM32 °FMostly cloudy.15 mph75%30.33 "HgN/A
2:30 PM32 °FMostly cloudy.15 mph75%30.33 "HgN/A
2:00 PM32 °FMostly cloudy.13 mph80%30.33 "HgN/A
1:30 PM32 °FMostly cloudy.15 mph75%30.33 "HgN/A
1:00 PM32 °FMore clouds than sun.15 mph80%30.33 "HgN/A
12:30 PM32 °FSunny.15 mph80%30.30 "Hg10 mi
12:00 PM32 °FSunny.13 mph80%30.30 "Hg10 mi
11:30 AM32 °FSunny.15 mph75%30.30 "Hg10 mi
11:00 AM34 °FSunny.13 mph75%30.30 "Hg10 mi
10:30 AM34 °FSunny.15 mph70%30.30 "Hg10 mi
10:00 AM34 °FSunny.13 mph70%30.30 "Hg10 mi
9:30 AM32 °FSunny.10 mph75%30.27 "Hg10 mi
9:00 AM32 °FSunny.10 mph75%30.27 "Hg10 mi
8:30 AM32 °FSunny.10 mph75%30.27 "Hg10 mi
8:00 AM30 °FSunny.6 mph80%30.24 "Hg10 mi
7:30 AM30 °FSunny.8 mph80%30.24 "Hg10 mi
7:00 AM30 °FClear.8 mph80%30.24 "Hg10 mi
6:30 AM30 °FClear.6 mph86%30.21 "Hg10 mi
6:00 AM30 °FClear.6 mph86%30.21 "Hg10 mi
5:30 AM32 °FClear.8 mph80%30.21 "Hg10 mi
5:00 AM32 °FClear.8 mph80%30.18 "Hg10 mi
4:30 AM32 °FClear.6 mph80%30.18 "Hg10 mi
4:00 AM34 °FClear.6 mph81%30.18 "Hg10 mi
3:30 AM34 °FClear.6 mph81%30.15 "Hg10 mi
3:00 AM32 °FClear.6 mph87%30.15 "Hg10 mi
2:30 AM32 °FClear.3 mph80%30.15 "Hg10 mi
2:00 AM34 °FClear.3 mph81%30.15 "Hg10 mi
Weather by CustomWeather, © 2015

See weather overviewHow to use our weather pages